Terminal Aerodrome Forecast
Issued by NWS Wilmington, OH

Current Version | Previous Version | Text Only | Print | Product List | Glossary Off
Versions: 1 2 3 4 5 6 7 8 9 10 11 12 13 14 15 16 17

000
FTUS41 KILN 241100
TAFCMH
TAF
KCMH 241139Z 2412/2512 15005KT P6SM BKN022 OVC080
     FM241500 16007KT P6SM VCSH OVC018
     FM241700 18012KT P6SM SCT015 OVC050
     FM242100 22017G25KT P6SM -SHRA OVC015
     FM250000 25025G40KT P6SM OVC018
     FM250400 24018G28KT P6SM OVC022=

USA.gov is the U.S. government's official web portal to all federal, state and local government web resources and services.